Time,TemperatureF,DewpointF,PressureIn,WindDirection,WindDirectionDegrees,WindSpeedMPH,WindSpeedGustMPH,Humidity,HourlyPrecipIn,Conditions,Clouds,dailyrainin,SoftwareType,DateUTC
2013-07-08 00:00:00,57.1,54.2,29.86,NW,319,0.0,0.0,90,0.00,,,0.00,Wunderground v.1.15,2013-07-08 07:00:00,
2013-07-08 00:10:00,57.6,54.7,29.86,NW,319,0.0,0.0,90,0.00,,,0.00,Wunderground v.1.15,2013-07-08 07:10:00,
2013-07-08 00:20:00,58.1,54.9,29.86,NW,319,0.0,0.0,89,0.00,,,0.00,Wunderground v.1.15,2013-07-08 07:20:00,
2013-07-08 00:30:00,58.6,55.4,29.86,NW,319,0.0,0.0,89,0.00,,,0.00,Wunderground v.1.15,2013-07-08 07:30:00,
2013-07-08 00:40:00,59.0,55.4,29.86,SE,140,0.0,0.0,88,0.00,,,0.00,Wunderground v.1.15,2013-07-08 07:40:00,
2013-07-08 00:50:00,59.6,55.7,29.86,East,87,0.0,0.0,87,0.00,,,0.00,Wunderground v.1.15,2013-07-08 07:50:00,
2013-07-08 01:00:00,59.9,55.7,29.86,ESE,111,0.0,0.0,86,0.00,,,0.00,Wunderground v.1.15,2013-07-08 08:00:00,
2013-07-08 01:10:00,60.2,56.0,29.86,South,179,0.0,0.0,86,0.00,,,0.00,Wunderground v.1.15,2013-07-08 08:10:00,
2013-07-08 01:20:00,60.5,56.0,29.86,East,80,0.0,0.0,85,0.00,,,0.00,Wunderground v.1.15,2013-07-08 08:20:00,
2013-07-08 01:30:00,60.6,56.1,29.86,ESE,102,0.0,0.0,85,0.00,,,0.00,Wunderground v.1.15,2013-07-08 08:30:00,
2013-07-08 01:35:00,60.7,56.2,29.86,SE,143,0.0,0.0,85,0.00,,,0.00,Wunderground v.1.15,2013-07-08 08:35:00,
2013-07-08 01:45:00,60.8,56.3,29.86,ENE,78,0.0,0.0,85,0.00,,,0.00,Wunderground v.1.15,2013-07-08 08:45:00,
2013-07-08 01:50:00,60.8,56.3,29.86,SSW,192,0.0,0.0,85,0.00,,,0.00,Wunderground v.1.15,2013-07-08 08:50:00,
2013-07-08 02:00:00,60.8,56.3,29.86,SSE,156,0.0,1.0,85,0.00,,,0.00,Wunderground v.1.15,2013-07-08 09:00:00,
2013-07-08 02:10:00,60.8,55.9,29.86,SSE,156,0.0,0.0,84,0.00,,,0.00,Wunderground v.1.15,2013-07-08 09:10:00,
2013-07-08 02:15:00,60.8,55.9,29.86,SSE,152,0.0,0.0,84,0.00,,,0.00,Wunderground v.1.15,2013-07-08 09:15:00,
2013-07-08 02:25:00,60.7,55.8,29.87,SE,134,0.0,1.0,84,0.00,,,0.00,Wunderground v.1.15,2013-07-08 09:25:00,
2013-07-08 02:35:00,60.8,56.3,29.86,SE,134,0.0,0.0,85,0.00,,,0.00,Wunderground v.1.15,2013-07-08 09:35:00,
2013-07-08 02:40:00,60.8,55.9,29.87,East,88,0.0,0.0,84,0.00,,,0.00,Wunderground v.1.15,2013-07-08 09:40:00,
2013-07-08 02:50:00,60.7,55.5,29.87,East,88,0.0,0.0,83,0.00,,,0.00,Wunderground v.1.15,2013-07-08 09:50:00,
2013-07-08 03:00:00,60.7,55.5,29.87,SE,126,0.0,0.0,83,0.00,,,0.00,Wunderground v.1.15,2013-07-08 10:00:00,
2013-07-08 03:10:00,60.6,55.4,29.87,SE,126,0.0,0.0,83,0.00,,,0.00,Wunderground v.1.15,2013-07-08 10:10:00,
2013-07-08 03:15:00,60.6,55.4,29.87,SE,126,0.0,0.0,83,0.00,,,0.00,Wunderground v.1.15,2013-07-08 10:15:00,
2013-07-08 03:25:00,60.5,55.3,29.87,SE,126,0.0,0.0,83,0.00,,,0.00,Wunderground v.1.15,2013-07-08 10:25:00,
2013-07-08 03:30:00,60.5,55.3,29.87,SE,126,0.0,0.0,83,0.00,,,0.00,Wunderground v.1.15,2013-07-08 10:30:00,
2013-07-08 03:40:00,60.4,55.2,29.87,SE,142,0.0,0.0,83,0.00,,,0.00,Wunderground v.1.15,2013-07-08 10:40:00,
2013-07-08 03:50:00,60.4,55.2,29.87,North,355,0.0,0.0,83,0.00,,,0.00,Wunderground v.1.15,2013-07-08 10:50:00,
2013-07-08 04:00:00,60.4,55.2,29.87,North,355,0.0,0.0,83,0.00,,,0.00,Wunderground v.1.15,2013-07-08 11:00:00,
2013-07-08 04:10:00,60.4,55.2,29.87,NE,48,0.0,0.0,83,0.00,,,0.00,Wunderground v.1.15,2013-07-08 11:10:00,
2013-07-08 04:20:00,60.4,54.9,29.88,SE,124,0.0,0.0,82,0.00,,,0.00,Wunderground v.1.15,2013-07-08 11:20:00,
2013-07-08 04:30:00,60.4,54.9,29.88,WNW,294,0.0,0.0,82,0.00,,,0.00,Wunderground v.1.15,2013-07-08 11:30:00,
2013-07-08 04:35:00,60.4,54.9,29.88,WNW,294,0.0,0.0,82,0.00,,,0.00,Wunderground v.1.15,2013-07-08 11:35:00,
2013-07-08 04:40:00,60.4,54.9,29.88,WNW,294,0.0,0.0,82,0.00,,,0.00,Wunderground v.1.15,2013-07-08 11:40:00,
2013-07-08 04:50:00,60.4,54.5,29.88,SSE,162,0.0,1.0,81,0.00,,,0.00,Wunderground v.1.15,2013-07-08 11:50:00,
2013-07-08 05:00:00,60.4,54.5,29.88,SSE,162,0.0,0.0,81,0.00,,,0.00,Wunderground v.1.15,2013-07-08 12:00:00,
2013-07-08 05:10:00,60.4,54.9,29.88,SSE,162,0.0,0.0,82,0.00,,,0.00,Wunderground v.1.15,2013-07-08 12:10:00,
2013-07-08 05:15:00,60.4,54.9,29.88,SSE,162,0.0,0.0,82,0.00,,,0.00,Wunderground v.1.15,2013-07-08 12:15:00,
2013-07-08 05:25:00,60.4,54.9,29.88,ENE,68,0.0,0.0,82,0.00,,,0.00,Wunderground v.1.15,2013-07-08 12:25:00,
2013-07-08 05:35:00,60.5,55.0,29.88,SSE,150,0.0,0.0,82,0.00,,,0.00,Wunderground v.1.15,2013-07-08 12:35:00,
2013-07-08 05:40:00,60.4,54.9,29.88,SSE,150,0.0,0.0,82,0.00,,,0.00,Wunderground v.1.15,2013-07-08 12:40:00,
2013-07-08 05:50:00,60.4,54.9,29.89,ENE,78,0.0,0.0,82,0.00,,,0.00,Wunderground v.1.15,2013-07-08 12:50:00,
2013-07-08 06:00:00,60.3,54.8,29.89,NNW,346,0.0,0.0,82,0.00,,,0.00,Wunderground v.1.15,2013-07-08 13:00:00,
2013-07-08 06:10:00,60.3,54.8,29.89,NW,313,0.0,0.0,82,0.00,,,0.00,Wunderground v.1.15,2013-07-08 13:10:00,
2013-07-08 06:20:00,60.3,54.8,29.89,NW,313,0.0,0.0,82,0.00,,,0.00,Wunderground v.1.15,2013-07-08 13:20:00,
2013-07-08 06:30:00,60.4,54.9,29.89,NW,312,0.0,0.0,82,0.00,,,0.00,Wunderground v.1.15,2013-07-08 13:30:00,
2013-07-08 06:40:00,60.4,54.9,29.90,NNW,333,0.0,0.0,82,0.00,,,0.00,Wunderground v.1.15,2013-07-08 13:40:00,
2013-07-08 06:50:00,60.5,55.0,29.90,NNW,330,0.0,0.0,82,0.00,,,0.00,Wunderground v.1.15,2013-07-08 13:50:00,
2013-07-08 07:00:00,60.6,54.7,29.90,WNW,289,0.0,0.0,81,0.00,,,0.00,Wunderground v.1.15,2013-07-08 14:00:00,
2013-07-08 07:10:00,60.9,55.0,29.91,WNW,290,0.0,0.0,81,0.00,,,0.00,Wunderground v.1.15,2013-07-08 14:10:00,
2013-07-08 07:15:00,61.0,55.1,29.91,NNW,343,0.0,0.0,81,0.00,,,0.00,Wunderground v.1.15,2013-07-08 14:15:00,
2013-07-08 07:25:00,61.3,54.7,29.91,NNW,339,0.0,0.0,79,0.00,,,0.00,Wunderground v.1.15,2013-07-08 14:25:00,
2013-07-08 07:30:00,61.5,54.6,29.91,NNW,345,0.0,0.0,78,0.00,,,0.00,Wunderground v.1.15,2013-07-08 14:30:00,
2013-07-08 07:40:00,61.9,54.6,29.92,ENE,66,0.0,0.0,77,0.00,,,0.00,Wunderground v.1.15,2013-07-08 14:40:00,
2013-07-08 07:50:00,62.0,54.3,29.92,ENE,75,0.0,0.0,76,0.00,,,0.00,Wunderground v.1.15,2013-07-08 14:50:00,
2013-07-08 07:55:00,62.3,54.6,29.92,ENE,75,0.0,0.0,76,0.00,,,0.00,Wunderground v.1.15,2013-07-08 14:55:00,
2013-07-08 08:00:00,62.4,54.7,29.92,ENE,73,0.0,0.0,76,0.00,,,0.00,Wunderground v.1.15,2013-07-08 15:00:00,
2013-07-08 08:10:00,63.1,55.0,29.92,ENE,72,0.0,0.0,75,0.00,,,0.00,Wunderground v.1.15,2013-07-08 15:10:00,
2013-07-08 08:20:00,64.1,55.3,29.92,East,81,0.0,0.0,73,0.00,,,0.00,Wunderground v.1.15,2013-07-08 15:20:00,
2013-07-08 08:30:00,64.8,55.2,29.92,East,92,0.0,0.0,71,0.00,,,0.00,Wunderground v.1.15,2013-07-08 15:30:00,
2013-07-08 08:40:00,65.0,55.4,29.92,ESE,109,0.0,0.0,71,0.00,,,0.00,Wunderground v.1.15,2013-07-08 15:40:00,
2013-07-08 08:45:00,65.5,55.8,29.92,South,172,0.0,3.0,71,0.00,,,0.00,Wunderground v.1.15,2013-07-08 15:45:00,
2013-07-08 08:55:00,65.8,56.1,29.92,WSW,244,1.0,1.0,71,0.00,,,0.00,Wunderground v.1.15,2013-07-08 15:55:00,
2013-07-08 09:00:00,66.6,55.7,29.92,NNE,12,1.0,1.0,68,0.00,,,0.00,Wunderground v.1.15,2013-07-08 16:00:00,
2013-07-08 09:10:00,67.4,56.5,29.92,SSW,198,0.0,0.0,68,0.00,,,0.00,Wunderground v.1.15,2013-07-08 16:10:00,
2013-07-08 09:15:00,68.2,56.8,29.93,North,5,0.0,2.0,67,0.00,,,0.00,Wunderground v.1.15,2013-07-08 16:15:00,
2013-07-08 09:25:00,68.5,56.3,29.93,SSE,156,0.0,0.0,65,0.00,,,0.00,Wunderground v.1.15,2013-07-08 16:25:00,
2013-07-08 09:30:00,68.9,57.1,29.92,NW,309,0.0,0.0,66,0.00,,,0.00,Wunderground v.1.15,2013-07-08 16:30:00,
2013-07-08 09:40:00,70.0,56.8,29.92,ESE,107,0.0,0.0,63,0.00,,,0.00,Wunderground v.1.15,2013-07-08 16:40:00,
2013-07-08 09:50:00,70.7,57.5,29.92,ESE,110,0.0,0.0,63,0.00,,,0.00,Wunderground v.1.15,2013-07-08 16:50:00,
2013-07-08 09:55:00,71.3,57.2,29.92,North,360,0.0,0.0,61,0.00,,,0.00,Wunderground v.1.15,2013-07-08 16:55:00,
2013-07-08 10:00:00,71.4,57.2,29.92,NW,319,1.0,3.0,61,0.00,,,0.00,Wunderground v.1.15,2013-07-08 17:00:00,
2013-07-08 10:10:00,71.6,57.4,29.92,North,5,1.0,2.0,61,0.00,,,0.00,Wunderground v.1.15,2013-07-08 17:10:00,
2013-07-08 10:15:00,72.1,57.9,29.92,NNW,331,1.0,2.0,61,0.00,,,0.00,Wunderground v.1.15,2013-07-08 17:15:00,
2013-07-08 10:25:00,72.6,57.9,29.92,WNW,294,1.0,1.0,60,0.00,,,0.00,Wunderground v.1.15,2013-07-08 17:25:00,
2013-07-08 10:30:00,73.2,58.0,29.93,North,360,1.0,1.0,59,0.00,,,0.00,Wunderground v.1.15,2013-07-08 17:30:00,
2013-07-08 10:40:00,73.8,58.6,29.93,NW,304,1.0,1.0,59,0.00,,,0.00,Wunderground v.1.15,2013-07-08 17:40:00,
2013-07-08 10:45:00,73.9,58.2,29.93,North,355,1.0,1.0,58,0.00,,,0.00,Wunderground v.1.15,2013-07-08 17:45:00,
2013-07-08 10:55:00,73.6,58.4,29.93,East,93,1.0,2.0,59,0.00,,,0.00,Wunderground v.1.15,2013-07-08 17:55:00,
2013-07-08 11:00:00,73.6,57.9,29.93,NNE,24,1.0,1.0,58,0.00,,,0.00,Wunderground v.1.15,2013-07-08 18:00:00,
2013-07-08 11:10:00,75.0,59.2,29.93,ENE,66,0.0,4.0,58,0.00,,,0.00,Wunderground v.1.15,2013-07-08 18:10:00,
2013-07-08 11:20:00,75.0,58.2,29.93,West,259,1.0,3.0,56,0.00,,,0.00,Wunderground v.1.15,2013-07-08 18:20:00,
2013-07-08 11:35:00,74.7,58.5,29.93,NNW,344,2.0,2.0,57,0.00,,,0.00,Wunderground v.1.15,2013-07-08 18:35:00,
2013-07-08 11:40:00,74.5,58.3,29.93,North,5,2.0,2.0,57,0.00,,,0.00,Wunderground v.1.15,2013-07-08 18:40:00,
2013-07-08 11:50:00,74.7,58.9,29.93,NW,313,2.0,3.0,58,0.00,,,0.00,Wunderground v.1.15,2013-07-08 18:50:00,
2013-07-08 12:00:00,74.7,58.5,29.93,West,281,2.0,5.0,57,0.00,,,0.00,Wunderground v.1.15,2013-07-08 19:00:00,
2013-07-08 12:15:00,74.6,58.4,29.93,NW,309,2.0,4.0,57,0.00,,,0.00,Wunderground v.1.15,2013-07-08 19:15:00,
2013-07-08 12:30:00,75.3,58.0,29.93,North,5,2.0,2.0,55,0.00,,,0.00,Wunderground v.1.15,2013-07-08 19:30:00,
2013-07-08 12:40:00,76.3,58.9,29.93,North,11,1.0,2.0,55,0.00,,,0.00,Wunderground v.1.15,2013-07-08 19:40:00,
2013-07-08 12:50:00,76.2,58.3,29.93,WSW,257,3.0,4.0,54,0.00,,,0.00,Wunderground v.1.15,2013-07-08 19:50:00,
2013-07-08 12:55:00,76.1,58.8,29.93,NNW,346,2.0,4.0,55,0.00,,,0.00,Wunderground v.1.15,2013-07-08 19:55:00,
2013-07-08 13:00:00,77.1,58.6,29.93,WNW,289,2.0,2.0,53,0.00,,,0.00,Wunderground v.1.15,2013-07-08 20:00:00,
2013-07-08 13:15:00,77.8,58.8,29.93,West,278,2.0,3.0,52,0.00,,,0.00,Wunderground v.1.15,2013-07-08 20:15:00,
2013-07-08 13:20:00,78.0,58.4,29.93,WNW,296,2.0,5.0,51,0.00,,,0.00,Wunderground v.1.15,2013-07-08 20:20:00,
2013-07-08 13:30:00,77.5,58.5,29.93,North,350,2.0,2.0,52,0.00,,,0.00,Wunderground v.1.15,2013-07-08 20:30:00,
2013-07-08 13:35:00,77.5,58.5,29.93,NW,311,2.0,2.0,52,0.00,,,0.00,Wunderground v.1.15,2013-07-08 20:35:00,
2013-07-08 13:55:00,76.9,58.5,29.93,West,281,3.0,3.0,53,0.00,,,0.00,Wunderground v.1.15,2013-07-08 20:55:00,
2013-07-08 14:00:00,77.0,58.0,29.92,NNW,327,3.0,3.0,52,0.00,,,0.00,Wunderground v.1.15,2013-07-08 21:00:00,
2013-07-08 14:10:00,77.1,58.1,29.92,West,281,1.0,1.0,52,0.00,,,0.00,Wunderground v.1.15,2013-07-08 21:10:00,
2013-07-08 14:20:00,77.1,58.1,29.93,North,355,3.0,3.0,52,0.00,,,0.00,Wunderground v.1.15,2013-07-08 21:20:00,
2013-07-08 14:25:00,76.9,57.9,29.93,NE,50,3.0,5.0,52,0.00,,,0.00,Wunderground v.1.15,2013-07-08 21:25:00,
2013-07-08 14:35:00,76.7,58.8,29.92,WNW,294,3.0,4.0,54,0.00,,,0.00,Wunderground v.1.15,2013-07-08 21:35:00,
2013-07-08 14:40:00,76.7,58.3,29.92,NW,316,3.0,6.0,53,0.00,,,0.00,Wunderground v.1.15,2013-07-08 21:40:00,
2013-07-08 14:50:00,77.1,58.6,29.92,NW,321,3.0,3.0,53,0.00,,,0.00,Wunderground v.1.15,2013-07-08 21:50:00,
2013-07-08 15:05:00,78.0,58.4,29.92,North,350,1.0,5.0,51,0.00,,,0.00,Wunderground v.1.15,2013-07-08 22:05:00,
2013-07-08 15:15:00,77.9,58.3,29.92,North,355,2.0,3.0,51,0.00,,,0.00,Wunderground v.1.15,2013-07-08 22:15:00,
2013-07-08 15:30:00,78.1,59.0,29.92,NNW,333,3.0,5.0,52,0.00,,,0.00,Wunderground v.1.15,2013-07-08 22:30:00,
2013-07-08 15:40:00,78.7,58.5,29.91,WSW,250,3.0,3.0,50,0.00,,,0.00,Wunderground v.1.15,2013-07-08 22:40:00,
2013-07-08 15:50:00,78.6,58.4,29.91,North,360,3.0,3.0,50,0.00,,,0.00,Wunderground v.1.15,2013-07-08 22:50:00,
2013-07-08 16:05:00,78.2,58.0,29.91,West,265,3.0,3.0,50,0.00,,,0.00,Wunderground v.1.15,2013-07-08 23:05:00,
2013-07-08 16:10:00,78.7,58.5,29.91,North,360,2.0,7.0,50,0.00,,,0.00,Wunderground v.1.15,2013-07-08 23:10:00,
2013-07-08 16:15:00,79.0,58.2,29.91,WNW,296,3.0,7.0,49,0.00,,,0.00,Wunderground v.1.15,2013-07-08 23:15:00,
2013-07-08 16:30:00,79.5,58.7,29.91,NW,324,2.0,2.0,49,0.00,,,0.00,Wunderground v.1.15,2013-07-08 23:30:00,
2013-07-08 16:40:00,79.6,58.8,29.90,NW,315,3.0,5.0,49,0.00,,,0.00,Wunderground v.1.15,2013-07-08 23:40:00,
2013-07-08 16:45:00,79.3,58.5,29.90,NW,319,3.0,5.0,49,0.00,,,0.00,Wunderground v.1.15,2013-07-08 23:45:00,
2013-07-08 17:00:00,78.7,58.5,29.90,NW,310,2.0,4.0,50,0.00,,,0.00,Wunderground v.1.15,2013-07-09 00:00:00,
2013-07-08 17:30:00,79.9,59.6,29.89,NW,322,2.0,2.0,50,0.00,,,0.00,Wunderground v.1.15,2013-07-09 00:30:00,
2013-07-08 17:35:00,80.0,59.1,29.89,North,360,2.0,2.0,49,0.00,,,0.00,Wunderground v.1.15,2013-07-09 00:35:00,
2013-07-08 17:45:00,80.4,58.9,29.89,WNW,294,2.0,2.0,48,0.00,,,0.00,Wunderground v.1.15,2013-07-09 00:45:00,
2013-07-08 17:50:00,80.2,59.9,29.89,NW,317,2.0,2.0,50,0.00,,,0.00,Wunderground v.1.15,2013-07-09 00:50:00,
2013-07-08 18:00:00,79.5,59.2,29.89,North,5,2.0,2.0,50,0.00,,,0.00,Wunderground v.1.15,2013-07-09 01:00:00,
2013-07-08 18:10:00,78.5,59.4,29.89,NNW,334,2.0,5.0,52,0.00,,,0.00,Wunderground v.1.15,2013-07-09 01:10:00,
2013-07-08 18:15:00,78.0,59.5,29.89,North,10,2.0,5.0,53,0.00,,,0.00,Wunderground v.1.15,2013-07-09 01:15:00,
2013-07-08 18:35:00,76.5,59.1,29.90,North,355,1.0,1.0,55,0.00,,,0.00,Wunderground v.1.15,2013-07-09 01:35:00,
2013-07-08 18:45:00,75.5,59.2,29.90,ESE,111,1.0,1.0,57,0.00,,,0.00,Wunderground v.1.15,2013-07-09 01:45:00,
2013-07-08 18:55:00,74.4,58.7,29.90,NW,326,1.0,1.0,58,0.00,,,0.00,Wunderground v.1.15,2013-07-09 01:55:00,
2013-07-08 19:25:00,71.7,58.4,29.91,NW,311,1.0,2.0,63,0.00,,,0.00,Wunderground v.1.15,2013-07-09 02:25:00,
2013-07-08 19:35:00,70.9,57.7,29.91,North,5,1.0,5.0,63,0.00,,,0.00,Wunderground v.1.15,2013-07-09 02:35:00,
2013-07-08 19:45:00,69.4,57.1,29.91,NNE,23,2.0,2.0,65,0.00,,,0.00,Wunderground v.1.15,2013-07-09 02:45:00,
2013-07-08 19:55:00,68.3,57.3,29.91,NNW,339,1.0,1.0,68,0.00,,,0.00,Wunderground v.1.15,2013-07-09 02:55:00,
2013-07-08 20:05:00,67.3,57.2,29.92,NW,304,0.0,1.0,70,0.00,,,0.00,Wunderground v.1.15,2013-07-09 03:05:00,
2013-07-08 20:10:00,66.8,56.7,29.92,WNW,302,0.0,0.0,70,0.00,,,0.00,Wunderground v.1.15,2013-07-09 03:10:00,
2013-07-08 20:20:00,65.9,56.6,29.92,North,5,0.0,0.0,72,0.00,,,0.00,Wunderground v.1.15,2013-07-09 03:20:00,
2013-07-08 20:25:00,65.5,56.6,29.92,NW,320,0.0,0.0,73,0.00,,,0.00,Wunderground v.1.15,2013-07-09 03:25:00,
2013-07-08 20:35:00,64.8,56.7,29.93,North,355,0.0,0.0,75,0.00,,,0.00,Wunderground v.1.15,2013-07-09 03:35:00,
2013-07-08 20:40:00,64.4,56.7,29.93,NNW,335,1.0,1.0,76,0.00,,,0.00,Wunderground v.1.15,2013-07-09 03:40:00,
2013-07-08 21:00:00,63.4,57.5,29.93,NNW,340,1.0,1.0,81,0.00,,,0.00,Wunderground v.1.15,2013-07-09 04:00:00,
2013-07-08 21:05:00,63.2,57.3,29.94,West,277,1.0,1.0,81,0.00,,,0.00,Wunderground v.1.15,2013-07-09 04:05:00,
2013-07-08 21:10:00,63.0,57.4,29.94,WNW,302,0.0,0.0,82,0.00,,,0.00,Wunderground v.1.15,2013-07-09 04:10:00,
2013-07-08 21:15:00,62.8,57.2,29.94,WNW,302,0.0,0.0,82,0.00,,,0.00,Wunderground v.1.15,2013-07-09 04:15:00,
2013-07-08 21:20:00,62.6,57.0,29.94,WNW,302,0.0,0.0,82,0.00,,,0.00,Wunderground v.1.15,2013-07-09 04:20:00,
2013-07-08 21:30:00,62.1,56.9,29.94,WNW,302,0.0,1.0,83,0.00,,,0.00,Wunderground v.1.15,2013-07-09 04:30:00,
2013-07-08 21:35:00,61.9,57.0,29.94,WNW,302,0.0,1.0,84,0.00,,,0.00,Wunderground v.1.15,2013-07-09 04:35:00,
2013-07-08 21:40:00,61.7,56.8,29.94,WNW,302,0.0,0.0,84,0.00,,,0.00,Wunderground v.1.15,2013-07-09 04:40:00,
2013-07-08 21:50:00,61.4,56.8,29.95,WNW,302,0.0,0.0,85,0.00,,,0.00,Wunderground v.1.15,2013-07-09 04:50:00,
2013-07-08 22:00:00,61.0,56.5,29.95,WNW,302,0.0,0.0,85,0.00,,,0.00,Wunderground v.1.15,2013-07-09 05:00:00,
2013-07-08 22:10:00,60.5,56.0,29.96,WNW,302,0.0,0.0,85,0.00,,,0.00,Wunderground v.1.15,2013-07-09 05:10:00,
2013-07-08 22:20:00,60.0,55.8,29.96,WNW,302,0.0,0.0,86,0.00,,,0.00,Wunderground v.1.15,2013-07-09 05:20:00,
2013-07-08 22:30:00,59.5,55.6,29.96,WNW,302,0.0,0.0,87,0.00,,,0.00,Wunderground v.1.15,2013-07-09 05:30:00,
2013-07-08 22:35:00,59.3,55.4,29.97,WNW,302,0.0,0.0,87,0.00,,,0.00,Wunderground v.1.15,2013-07-09 05:35:00,
2013-07-08 22:40:00,59.1,55.2,29.97,WNW,302,0.0,0.0,87,0.00,,,0.00,Wunderground v.1.15,2013-07-09 05:40:00,
2013-07-08 22:45:00,58.8,54.6,29.97,WNW,302,0.0,0.0,86,0.00,,,0.00,Wunderground v.1.15,2013-07-09 05:45:00,
2013-07-08 22:55:00,58.4,54.9,29.97,WNW,302,0.0,0.0,88,0.00,,,0.00,Wunderground v.1.15,2013-07-09 05:55:00,
2013-07-08 23:00:00,58.3,55.1,29.97,WNW,302,0.0,0.0,89,0.00,,,0.00,Wunderground v.1.15,2013-07-09 06:00:00,
2013-07-08 23:10:00,58.0,54.8,29.97,WNW,302,0.0,0.0,89,0.00,,,0.00,Wunderground v.1.15,2013-07-09 06:10:00,
2013-07-08 23:20:00,57.8,54.6,29.97,WNW,302,0.0,0.0,89,0.00,,,0.00,Wunderground v.1.15,2013-07-09 06:20:00,
2013-07-08 23:25:00,57.6,54.4,29.97,WNW,302,0.0,0.0,89,0.00,,,0.00,Wunderground v.1.15,2013-07-09 06:25:00,
2013-07-08 23:35:00,57.4,54.5,29.97,WNW,302,0.0,0.0,90,0.00,,,0.00,Wunderground v.1.15,2013-07-09 06:35:00,
2013-07-08 23:40:00,57.4,54.5,29.97,WNW,302,0.0,0.0,90,0.00,,,0.00,Wunderground v.1.15,2013-07-09 06:40:00,
2013-07-08 23:45:00,57.3,54.4,29.98,WNW,302,0.0,0.0,90,0.00,,,0.00,Wunderground v.1.15,2013-07-09 06:45:00,
2013-07-08 23:55:00,57.1,54.2,29.98,WNW,302,0.0,0.0,90,0.00,,,0.00,Wunderground v.1.15,2013-07-09 06:55:00,